KC5MK Weather Reports


Display with metric or nautical units.
time (UTC)temp
F
wind
direction
speed
MPH
gust
MPH
rain 1hr
in
rain 24hr
in
rain mn
in
humidity
%
barometer
mb
20260506044542 57 42 1.0 6.0 0.00 0.00 0.00 78 1009.0
20260506043029 58 110 0.0 7.0 0.00 0.00 0.00 79 1009.0
20260506041528 58 328 0.0 5.0 0.00 0.00 0.00 79 1008.8
20260506040048 59 343 0.0 6.0 0.00 0.00 0.00 80 1008.8
20260506034527 59 11 0.0 3.0 0.00 0.00 0.00 79 1008.6
20260506033023 59 324 1.0 4.0 0.00 0.00 0.00 79 1008.5
20260506031538 59 337 1.0 4.0 0.00 0.00 0.00 79 1008.5
20260506030020 59 349 0.0 5.0 0.00 0.00 0.00 79 1007.8
20260506024520 60 330 1.0 3.0 0.00 0.00 0.00 79 1007.6
20260506023015 60 280 0.0 2.0 0.00 0.00 0.00 78 1007.6
20260506021513 61 268 0.0 2.0 0.00 0.00 0.00 77 1007.3
20260506020011 62 298 0.0 3.0 0.00 0.00 0.00 76 1006.7
20260506014511 63 330 1.0 4.0 0.00 0.00 0.00 75 1006.0
20260506013002 63 18 2.0 7.0 0.00 0.00 0.00 75 1005.2
20260506011607 64 333 1.0 5.0 0.00 0.00 0.00 74 1004.8
20260506010059 65 326 0.0 5.0 0.00 0.00 0.00 73 1004.9
20260506004555 66 62 1.0 5.0 0.00 0.00 0.00 72 1004.6
20260506003053 66 89 2.0 6.0 0.00 0.00 0.00 71 1004.5
20260506001554 67 66 0.0 4.0 0.00 0.00 0.00 72 1004.9
20260506000049 67 333 0.0 5.0 0.00 0.00 0.00 71 1004.4
20260505234556 68 330 3.0 5.0 0.00 0.00 0.00 70 1004.4
20260505233043 70 321 0.0 3.0 0.00 0.00 0.00 70 1004.4
20260505231548 71 340 2.0 5.0 0.00 0.00 0.00 69 1003.9
20260505230043 72 337 1.0 4.0 0.00 0.00 0.00 68 1003.7
20260505224541 72 297 0.0 4.0 0.00 0.00 0.00 68 1003.9
20260505223050 74 323 3.0 6.0 0.00 0.00 0.00 65 1003.9
20260505221539 75 330 1.0 4.0 0.00 0.00 0.00 64 1003.7
20260505220041 76 354 2.0 4.0 0.00 0.00 0.00 62 1003.6
20260505214547 77 322 1.0 5.0 0.00 0.00 0.00 62 1003.3
20260505213038 78 343 3.0 5.0 0.00 0.00 0.00 61 1002.9
20260505211537 79 307 0.0 4.0 0.00 0.00 0.00 58 1003.3
20260505210036 80 291 2.0 5.0 0.00 0.00 0.00 59 1003.5
20260505204539 80 337 2.0 6.0 0.00 0.00 0.00 59 1003.4
20260505203035 81 262 1.0 6.0 0.00 0.00 0.00 60 1003.4
20260505201536 82 349 2.0 8.0 0.00 0.00 0.00 58 1003.5
20260505200041 83 335 2.0 9.0 0.00 0.00 0.00 49 1003.4
20260505194537 81 338 1.0 10.0 0.00 0.00 0.00 50 1003.6
20260505193031 82 354 2.0 7.0 0.00 0.00 0.00 45 1003.2
20260505191530 84 343 4.0 13.0 0.00 0.00 0.00 47 1003.1
20260505190037 85 254 5.0 14.0 0.00 0.00 0.00 52 1002.8
20260505184526 84 241 5.0 12.0 0.00 0.00 0.00 56 1002.9
20260505183026 83 290 4.0 13.0 0.00 0.00 0.00 55 1003.0
20260505181525 84 262 3.0 14.0 0.00 0.00 0.00 55 1002.7
20260505180022 83 276 4.0 10.0 0.00 0.00 0.00 59 1002.8
20260505174519 82 247 4.0 12.0 0.00 0.00 0.00 66 1002.9
20260505173016 81 231 6.0 13.0 0.00 0.00 0.00 69 1002.8
20260505171521 80 250 8.0 14.0 0.00 0.00 0.00 70 1002.8
20260505170015 78 216 5.0 13.0 0.00 0.00 0.00 73 1002.7
20260505164508 78 256 7.0 15.0 0.00 0.00 0.00 74 1002.8
20260505163007 77 226 5.0 12.0 0.00 0.00 0.00 75 1002.6
20260505161502 76 233 5.0 10.0 0.00 0.00 0.00 74 1002.4
20260505153049 75 241 6.0 9.0 0.00 0.00 0.00 77 1002.3
20260505151548 74 219 4.0 9.0 0.00 0.00 0.00 76 1002.4
20260505130104 71 256 4.0 9.0 0.00 0.00 0.00 80 1001.8
20260505124546 70 232 4.0 10.0 0.00 0.00 0.00 81 1001.4
20260505123045 70 199 3.0 10.0 0.00 0.00 0.00 81 1001.5
20260505121540 69 227 4.0 8.0 0.00 0.00 0.00 82 1001.3
20260505120040 69 210 4.0 6.0 0.00 0.00 0.00 82 1001.3
20260505114539 69 214 3.0 8.0 0.00 0.00 0.00 81 1001.2
20260505113041 69 214 4.0 7.0 0.00 0.00 0.00 81 1001.1
20260505111540 70 203 3.0 7.0 0.00 0.00 0.00 80 1001.2
20260505101532 71 200 6.0 10.0 0.00 0.00 0.00 78 1001.1
20260505100032 71 233 5.0 11.0 0.00 0.00 0.00 77 1001.2
20260505094529 71 220 4.0 11.0 0.00 0.00 0.00 77 1001.1
20260505093027 72 233 6.0 11.0 0.00 0.00 0.00 76 1001.1
20260505091524 72 225 4.0 11.0 0.00 0.00 0.00 76 1001.1
20260505090028 72 226 5.0 9.0 0.00 0.00 0.00 76 1001.0
20260505084526 72 221 5.0 12.0 0.00 0.00 0.00 76 1001.2
20260505083018 72 216 6.0 13.0 0.00 0.00 0.00 75 1001.4
20260505081514 72 216 5.0 10.0 0.00 0.00 0.00 75 1001.5
20260505080012 73 225 6.0 12.0 0.00 0.00 0.00 74 1001.7
20260505074509 73 220 6.0 12.0 0.00 0.00 0.00 74 1001.9
20260505073009 73 217 6.0 12.0 0.00 0.00 0.00 73 1002.1
20260505071513 73 245 9.0 16.0 0.00 0.00 0.00 72 1002.2
20260505070003 74 225 6.0 12.0 0.00 0.00 0.00 72 1002.5
20260505064507 73 225 5.0 12.0 0.00 0.00 0.00 73 1002.6
20260505063059 74 216 6.0 12.0 0.00 0.00 0.00 72 1002.6
20260505061602 74 222 7.0 12.0 0.00 0.00 0.00 72 1002.8
20260505060056 74 219 8.0 13.0 0.00 0.00 0.00 72 1002.8